Simultaneous Nadir Overpasses (SNOs) Predictions

Prediction of SNOs between METOP-B and NOAA-19 Satellite Orbit:

Table of predicted SNOs for the next 14.0 days since TLE Epoch: 2/24/2024
Index Date (METOP-B) Time (METOP-B) Lat,Lon (METOP-B) SZA (METOP-B ) Date (NOAA-19) Time (NOAA-19) Lat,Lon (NOAA-19) SZA (NOAA-19 ) Distance(km) Time Diff (sec)
1 03/05/2024 13:57:43 79.71, -11.79 85.71 03/05/2024 13:56:32 79.70, -11.88 85.69 2.14 71
2 03/05/2024 14:48:23 -79.76, 155.99 94.24 03/05/2024 14:47:25 -79.77, 156.12 94.23 2.82 58
3 03/05/2024 15:39:02 79.79, -36.38 85.80 03/05/2024 15:38:27 79.79, -36.39 85.79 0.28 35
4 03/05/2024 16:29:43 -79.81, 131.12 94.19 03/05/2024 16:29:22 -79.81, 131.02 94.21 1.93 21
5 03/05/2024 17:20:21 79.88, -60.96 85.89 03/05/2024 17:20:22 79.88, -60.89 85.90 1.60 1
6 03/05/2024 18:11:02 -79.89, 106.54 94.10 03/05/2024 18:11:17 -79.89, 106.53 94.10 0.17 15
7 03/05/2024 19:01:41 79.93, -85.82 85.94 03/05/2024 19:02:19 79.92, -85.97 85.93 3.10 38
8 03/05/2024 19:52:21 -79.97, 81.97 94.01 03/05/2024 19:53:12 -79.98, 82.05 93.99 1.80 51



Historial Predications of SNOs between METOP-B and NOAA-19
